Lawrenceville, GA

5:16 PM EST on December 05, 2019 (GMT -0500)
Gwinnett County-Briscoe

Weather History for KLZU - November, 2019

Change the Weather History Date:

Saturday, November 16, 2019

  Actual Average (WUND) Record (WUND)
Temperature  
Mean Temperature 52 °F -  
Max Temperature 63 °F - - (-1)
Min Temperature 42 °F - - (-1)
Degree Days  
Heating Degree Days 12    
Growing Degree Days 2 (Base 50)    
Moisture  
Dew Point 42 °F    
Average Humidity 77    
Maximum Humidity 100    
Minimum Humidity 41    
Precipitation  
Precipitation 0.00 in - - ()
Sea Level Pressure  
Sea Level Pressure 30.08 in    
Wind  
Wind Speed 1 mph ()    
Max Wind Speed 10 mph    
Max Gust Speed 16 mph    
Visibility 8.9 miles    
Events      
Averages and records for this station are not official NWS values.
T = Trace of Precipitation, MM = Missing Value Source: Averaged Metar Reports

Daily Weather History Graph

Daily Weather History Graph

Search for Another Location

Airport or City:

Astronomy

Nov. 16, 2019 Rise Set
Actual Time 7:09 AM EST 5:31 PM EST
Civil Twilight 6:42 AM EST 5:58 PM EST
Nautical Twilight 6:12 AM EST 6:28 PM EST
Astronomical Twilight 5:42 AM EST 6:58 PM EST
Moon 9:08 PM EST (11/16) 10:57 AM EST (11/16)
Length of Visible Light 11h 15m
Length of Day
10h 22m
Waning Gibbous, 82% of the Moon is Illuminated
Nov 16
Waning Gibbous
Nov 19
Last Quarter
Nov 26
New
Dec 4
First Quarter
Dec 12
Full

Hourly Weather History & Observations

Time (EST) Temp. Dew Point Humidity Pressure Visibility Wind Dir Wind Speed Gust Speed Precip Events Conditions
12:56 AM 44.1 °F 44.1 °F 100% 30.08 in 3.0 mi Calm Calm - N/A   Scattered Clouds
1:06 AM 42.8 °F 42.8 °F 100% 30.04 in 1.5 mi Calm Calm - N/A   Scattered Clouds
1:31 AM 42.8 °F 42.8 °F 100% 30.04 in 3.0 mi Calm Calm - N/A   Mostly Cloudy
1:56 AM 44.1 °F 44.1 °F 100% 30.07 in 6.0 mi Calm Calm - N/A   Overcast
2:56 AM 45.0 °F 45.0 °F 100% 30.08 in 8.0 mi Calm Calm - N/A   Overcast
3:56 AM 45.0 °F 45.0 °F 100% 30.03 in 9.0 mi Calm Calm - N/A   Overcast
4:56 AM 45.0 °F 44.1 °F 97% 30.05 in 10.0 mi Calm Calm - N/A   Overcast
5:56 AM 44.1 °F 43.0 °F 96% 30.06 in 10.0 mi Calm Calm - N/A   Overcast
6:56 AM 43.0 °F 42.1 °F 97% 30.06 in 10.0 mi Calm Calm - N/A   Mostly Cloudy
7:56 AM 42.1 °F 41.0 °F 96% 30.08 in 10.0 mi Calm Calm - N/A   Clear
8:56 AM 44.1 °F 42.1 °F 93% 30.09 in 10.0 mi Calm Calm - N/A   Mostly Cloudy
9:56 AM 51.1 °F 44.1 °F 77% 30.13 in 10.0 mi Variable 3.5 mph - N/A   Mostly Cloudy
10:56 AM 55.9 °F 37.9 °F 51% 30.13 in 10.0 mi NE 6.9 mph - N/A   Overcast
11:56 AM 60.1 °F 36.0 °F 41% 30.10 in 10.0 mi NE 10.4 mph 16.1 mph N/A   Partly Cloudy
1:07 PM 60.8 °F 41.0 °F 48% 30.03 in 10.0 mi ENE 10.4 mph - N/A   Mostly Cloudy
1:56 PM 63.0 °F 39.9 °F 43% 30.05 in 10.0 mi Variable 3.5 mph - N/A   Mostly Cloudy
2:56 PM 63.0 °F 42.1 °F 46% 30.04 in 10.0 mi ENE 8.1 mph - N/A   Mostly Cloudy
3:56 PM 62.1 °F 41.0 °F 46% 30.05 in 10.0 mi Variable 5.8 mph - N/A   Overcast
4:56 PM 61.0 °F 39.0 °F 44% 30.06 in 10.0 mi ENE 4.6 mph - N/A   Overcast
5:56 PM 55.0 °F 44.1 °F 67% 30.07 in 10.0 mi Calm Calm - N/A   Overcast
6:56 PM 54.0 °F 44.1 °F 69% 30.08 in 10.0 mi Calm Calm - N/A   Overcast
7:56 PM 53.1 °F 44.1 °F 71% 30.10 in 10.0 mi Calm Calm - N/A   Overcast
8:56 PM 51.1 °F 45.0 °F 80% 30.11 in 10.0 mi Calm Calm - N/A   Overcast
9:56 PM 51.1 °F 45.0 °F 80% 30.12 in 10.0 mi East 3.5 mph - N/A   Overcast
10:56 PM 48.0 °F 43.0 °F 83% 30.11 in 10.0 mi Calm Calm - N/A   Scattered Clouds
11:56 PM 46.9 °F 41.0 °F 80% 30.10 in 10.0 mi NE 3.5 mph - N/A   Clear